Regional Weather Roundup
Issued by NWS Grand Forks, ND

Home | Current Version | Previous Version | Text Only | Print | Product List | Glossary Off
Versions: 1 2 3 4 5 6 7 8 9 10 11 12 13 14 15 16 17 18 19 20 21 22 23 24 25 26 27 28 29 30 31 32 33 34 35 36 37 38 39 40 41 42 43 44 45 46 47 48 49 50

000
ASUS43 KFGF 180810
RWRFGF
PRAIRIE TO PINES  WEATHER ROUNDUP
NATIONAL WEATHER SERVICE EASTERN NORTH DAKOTA/GRAND FORKS ND
200 AM CST MON DEC 18 2017

 **SATELLITE DATA USED TO AUGMENT SKY COVER AT AUTOMATED STATIONS**
 *****  WEATHER ACROSS EASTERN NORTH DAKOTA  *****

CITY           SKY/WX    TMP DP  RH WIND       PRES   REMARKS
GRAND FORKS    MOCLDY    26  23  88 S12       29.65F WCI  16
GRAND FRKS AFB MOCLDY    31  25  78 W9        29.65F WCI  23
GRAND FRKS NWS   N/A     27 N/A N/A S6          N/A  WCI  20
DEVILS LAKE    FAIR      30  25  81 SW13      29.61F WCI  20
FARGO          CLOUDY    32  30  92 S15       29.72F WCI  22
WAHPETON ARPT  PTSUNNY   32  30  93 S10       29.76F WCI  24
$$

 ***** WEATHER ACROSS CENTRAL AND WESTERN NORTH DAKOTA  *****

CITY           SKY/WX    TMP DP  RH WIND       PRES   REMARKS
BISMARCK       FAIR      32  23  69 SW5       29.70S
MINOT          CLOUDY    35  24  64 SW10      29.59F
JAMESTOWN      MOCLDY    34  27  75 SW10      29.67F
MINOT AFB      MOCLDY    33  24  68 SW12      29.57F WCI  24
GARRISON         N/A     29  23  78 CALM      29.62F
WILLISTON      CLOUDY    37  23  56 W12       29.62F
DICKINSON      CLOUDY    34  20  56 W16       29.65F WCI  24
HETTINGER      FAIR      31  20  63 W15       29.73F WCI  20
$$

 *****  OTHER AIRPORT OBSERVATIONS IN OUR AREA  *****

CITY           SKY/WX    TMP DP  RH WIND       PRES   REMARKS
WALHALLA       FAIR      32  25  74 SW9G15    29.56F WCI  24
GRAFTON AIRPOR NOT AVBL
VALLEY CITY AR NOT AVBL
CANDO          FAIR      28  28 100 W12       29.61S WCI  18
CAVALIER APRT  FAIR      32  25  74 SW10      29.57F WCI  24
GWINNER          N/A     32  32 100 SW12      29.72F WCI  23
SHEYENNE NWR     N/A     33  33 100 SW8       29.95S
ROLLA          PTSUNNY   28  25  86 SW23      29.53F WCI  14
 ***** THE ABOVE OBSERVATIONS ARE NON NWS ARE NOT QUALITY
       CONTROLLED AND MAY MIS-REPORT RAIN FOR SNOW...
$$

  *****  WEATHER ACROSS NORTHERN MINNESOTA  *****

CITY           SKY/WX    TMP DP  RH WIND       PRES   REMARKS
FLAG ISLAND    FAIR      25  23  93 S10       29.60F WCI  15
WARROAD        FAIR      28  25  86 S8G18     29.61F WCI  20
ROSEAU         FAIR      30  25  80 S15       29.62F WCI  19
HALLOCK        FAIR      27  25  93 S15       29.60F WCI  15
THF RVR FALLS  CLOUDY    30  28  92 S14       29.67F WCI  19
BAUDETTE       CLOUDY    25  22  88 S14G22    29.66F WCI  13
WASKISH        CLOUDY    27  25  93 S9G17     29.70F WCI  17
CROOKSTON      FAIR      28  28 100 S14       29.69S WCI  17
STEPHEN NDAWN    N/A     28  25  86 S16         N/A  WCI  17
GREENBUSH NDAW   N/A     30  27  86 S16         N/A  WCI  19
$$
  *****  WEATHER ACROSS CENTRAL AND WEST MINNESOTA  *****

CITY           SKY/WX    TMP DP  RH WIND       PRES   REMARKS
FOSSTON        FAIR      28  27  93 S13       29.70F WCI  18
BEMIDJI        CLOUDY    27  26  96 S7        29.73F FOG     WCI  19
PARK RAPIDS    CLOUDY    26  24  92 S7        29.75F WCI  18
ELBOW LAKE     FAIR      28  28  98 S10       29.78F FOG     WCI  19
WADENA         CLOUDY    25  25 100 S5        29.77F FOG     WCI  19
DETROIT LAKES  FAIR      28  28 100 S6        29.75F FOG     WCI  22
MOORHEAD       FAIR      30  27  86 S14       29.74F WCI  20
FERGUS FALLS   CLOUDY    28  28 100 S9        29.80F FOG     WCI  20
MORRIS MN      CLOUDY    28  27  93 SE6       29.79F FOG     WCI  22
STAPLES        CLOUDY    23  23 100 S7        29.78F FOG     WCI  15
$$
  *****  WEATHER ELSEWHERE ACROSS MINNESOTA  *****

CITY           SKY/WX    TMP DP  RH WIND       PRES   REMARKS
DULUTH         FOG       23  23 100 SW7       29.81F VSB 1   WCI  15
INTRNTL FALLS  MOCLDY    25  22  88 VRB5      29.70F FOG     WCI  19
ELY            CLOUDY    23  23 100 SW7       29.78F WCI  15
CLOQUET        CLOUDY    23  21  93 S5        29.81F FOG     WCI  17
WHEATON        CLOUDY    34  30  86 S9        29.80F
BRAINERD       CLOUDY    25  21  85 S7        29.81F FOG     WCI  17
HIBBING        CLOUDY    25  24  96 S6        29.78F WCI  18
ALEXANDRIA     FAIR      28  26  92 S9        29.80F WCI  19
SAINT CLOUD    CLOUDY    25  22  88 S5        29.85F WCI  19
MINNEAPOLIS    CLOUDY    26  26 100 CALM      29.89F FOG
$$

  *****  WEATHER ACROSS SOUTH DAKOTA  *****

CITY           SKY/WX    TMP DP  RH WIND       PRES   REMARKS
SIOUX FALLS    FAIR      30  26  85 SW7       29.86F WCI  23
BROOKINGS      FAIR      30  26  85 S8        29.83F WCI  22
WATERTOWN      MOCLDY    30  28  92 S8        29.78F WCI  22
HURON          FAIR      29  26  89 MISG      29.80F
SISSETON         N/A     37  30  75 S8        29.75F
ABERDEEN       FAIR      29  28  96 SW9       29.77F WCI  20
MITCHELL       FAIR      31  26  82 S8        29.83F WCI  23
PIERRE         FAIR      28  26  92 W9        29.79F WCI  19
MOBRIDGE       FAIR      30  23  75 NW3       29.72F
RAPID CITY     FAIR      30  18  60 W5        29.83S
$$

  *****  SOME WEATHER IN NEARBY STATES *****

CITY           SKY/WX    TMP DP  RH WIND       PRES   REMARKS
GLASGOW MT     FAIR      29  21  72 NW6       29.63F WCI  23
GREAT FALLS MT FAIR      41  24  51 SW29G44   29.67F
CHEYENNE WY    FAIR      27  19  72 W6        29.94S WCI  20
SCOTTSBLUFF NE FAIR      20  12  71 CALM      29.94F
OMAHA NE       FAIR      25  21  85 SE6       29.98S WCI  18
DES MOINES IA  FAIR      27  24  89 SW5       29.97R FOG     WCI  22
DAVENPORT IA   FOG       39  38  96 W12       29.97R VSB 1/2
CHICAGO IL     DRIZZLE   42  38  85 SW10      29.93F FOG
EAU CLAIRE WI  CLOUDY    27  25  92 SW6       29.90S FOG     WCI  20
LA CROSSE WI   CLOUDY    31  29  92 CALM      29.92F FOG
$$

  *****  SOME NATIONAL WEATHER *****

CITY           SKY/WX    TMP DP  RH WIND       PRES   REMARKS
LA GUARDIA NY  LGT RAIN  35  25  66 E7        30.18F
RALEIGH NC     FAIR      43  38  82 CALM      30.17R
ATLANTA GA     FOG       47  47 100 CALM      30.17S VSB 1/2
NEW ORLEANS LA LGT RAIN  65  65 100 SE14      30.12F
OKLAHOMA CITY  FOG       39  39 100 SW9       30.12R VSB 1/8
ALBUQUERQUE NM FAIR      35  30  82 N7        30.13R
SALT LAKE CITY FAIR      28  22  78 SE9       30.26F WCI  19
LOS ANGELES CA FAIR      60  23  24 N8        30.06F
BOISE ID       CLOUDY    36  26  67 E6        30.22F
SEATTLE WA     CLOUDY    49  44  83 S20G25    29.96S HAZE
$$

*** WEATHER ACROSS MANITOBA...SASKATCHEWAN AND ONTARIO ***
                ***ONTARIO***

CITY           SKY/WX    TMP DP  RH WIND       PRES   REMARKS
GERALDTON      CLOUDY    23  21  93 SW9       29.72F WCI  13
THUNDER BAY    CLOUDY    25  21  86 SW7       29.81F WCI  17
SIOUX LOOKOUT  CLOUDY    23  21  93 S7        29.62F WCI  15
TORONTO        CLOUDY    21  16  79 N5        30.02F WCI  15
BIG TROUT LK   CLOUDY    19  19 100 S7        29.41F WCI  10
PICKLE LAKE    NOT AVBL
DRYDEN         CLOUDY    23  23 100 S13G20    29.60F WCI  11
KENORA         CLOUDY    23  23 100 SW13G21   29.57F WCI  11
$$
                *** MANITOBA***

CITY           SKY/WX    TMP DP  RH WIND       PRES   REMARKS
BRANDON        CLOUDY    30  25  80 SW16G24   29.48F WCI  19
DAUPHIN        CLEAR     32  25  74 W16       29.40F WCI  21
ISLAND LAKE    NOT AVBL
PILOT MOUND      N/A     27  23  86 SW12        N/A  WCI  16
THE PAS        CLOUDY    30  25  80 W16G24    29.18S WCI  19
THOMPSON       FLURRIES  25  23  93 S6        29.04F WCI  18
WINNIPEG       CLOUDY    28  23  80 SW15G23   29.51F WCI  17
LYNN LAKE      FLURRIES  25  25 100 W15G22    29.00R WCI  12
GILLAM         CLOUDY    19  18  93 SE6       29.11F WCI  11
$$
                ***SASKATCHEWAN***

CITY           SKY/WX    TMP DP  RH WIND       PRES   REMARKS
ESTEVAN        CLOUDY    32  27  80 SW12      29.55S WCI  23
KINDERSLEY     MOCLDY    27  19  74 W7        29.52S WCI  19
LLOYDMINSTER   CLOUDY    27  19  74 W13       29.44S WCI  16
PRINCE ALBERT  CLEAR     28  21  74 W12       29.39R WCI  18
REGINA         PTCLDY    27  25  93 SW10      29.50F WCI  17
YORKTON        PTCLDY    27  23  86 SW14      29.42F WCI  15
N. BATTLEFORD  PTCLDY    27  18  69 W7        29.47F WCI  19
LA RONGE       CLOUDY    30  27  86 W16G26    29.26R WCI  19
SASKATOON      PTCLDY    23  18  80 SW12      29.47S WCI  12
SWIFT CURRENT  CLOUDY    30  23  74 W12       29.52F WCI  21
$$
NOTE: THESE ARE AUTOMATED STATIONS WITH LIMITED QUALITY CONTROL
      "FAIR" INDICATES FEW OR NO CLOUDS BELOW 12,000 FEET WITH NO
      SIGNIFICANT WEATHER AND/OR OBSTRUCTIONS TO VISIBILITY.
      SKY/WX - SKY CONDITION AND SIGNIFICANT WEATHER.
      TMP - AIR TEMPERATURE.    DP   - DEWPOINT TEMPERATURE.
      RH  - RELATIVE HUMIDITY.  PRES - PRESSURE.
      HX  - HEAT INDEX.         WCI  - WIND CHILL INDEX.
$



USA.gov is the U.S. government's official web portal to all federal, state and local government web resources and services.